TimeEDT,TemperatureF,Dew PointF,Humidity,Sea Level PressureIn,VisibilityMPH,Wind Direction,Wind SpeedMPH,Gust SpeedMPH,PrecipitationIn,Events,Conditions,WindDirDegrees,DateUTC
12:56 AM,64.9,62.1,90,30.10,7.0,South,3.5,-,N/A,,Clear,180,2013-05-10 04:56:00
1:56 AM,64.9,63.0,93,30.08,7.0,SW,4.6,-,N/A,,Clear,230,2013-05-10 05:56:00
2:56 AM,66.0,62.1,87,30.08,9.0,WSW,5.8,-,N/A,,Clear,240,2013-05-10 06:56:00
3:56 AM,66.0,62.1,87,30.09,9.0,WSW,4.6,-,N/A,,Clear,240,2013-05-10 07:56:00
4:56 AM,64.0,61.0,90,30.09,8.0,SW,6.9,-,N/A,,Clear,220,2013-05-10 08:56:00
5:56 AM,63.0,61.0,93,30.08,7.0,South,4.6,-,N/A,,Clear,190,2013-05-10 09:56:00
6:56 AM,64.0,61.0,90,30.09,5.0,SSW,4.6,-,N/A,,Clear,200,2013-05-10 10:56:00
7:56 AM,68.0,63.0,84,30.10,6.0,WSW,5.8,-,N/A,,Haze,240,2013-05-10 11:56:00
8:56 AM,75.0,63.0,66,30.11,10.0,WSW,6.9,-,N/A,,Clear,250,2013-05-10 12:56:00
9:56 AM,79.0,61.0,54,30.11,10.0,WSW,6.9,-,N/A,,Clear,250,2013-05-10 13:56:00
10:56 AM,82.9,60.1,46,30.10,10.0,Variable,3.5,-,N/A,,Clear,0,2013-05-10 14:56:00
11:56 AM,84.9,57.9,40,30.09,10.0,SSE,9.2,-,N/A,,Clear,150,2013-05-10 15:56:00
1:56 PM,86.0,57.0,37,30.07,10.0,SSW,12.7,-,N/A,,Clear,200,2013-05-10 17:56:00
2:56 PM,84.9,57.0,38,30.07,10.0,South,16.1,23.0,N/A,,Clear,190,2013-05-10 18:56:00
3:56 PM,82.9,60.1,46,30.07,10.0,SSW,16.1,21.9,N/A,,Clear,210,2013-05-10 19:56:00
4:56 PM,81.0,63.0,54,30.06,10.0,SSW,15.0,21.9,N/A,,Clear,200,2013-05-10 20:56:00
5:56 PM,81.0,63.0,54,30.05,10.0,SSW,15.0,23.0,N/A,,Clear,200,2013-05-10 21:56:00
6:56 PM,78.1,64.0,62,30.04,10.0,SSW,13.8,-,N/A,,Clear,200,2013-05-10 22:56:00
7:56 PM,73.9,64.0,71,30.05,10.0,SSW,11.5,-,N/A,,Clear,200,2013-05-10 23:56:00
8:56 PM,72.0,66.0,81,30.05,10.0,SSW,9.2,-,N/A,,Clear,200,2013-05-11 00:56:00
9:56 PM,71.1,66.9,87,30.06,9.0,South,6.9,-,N/A,,Clear,190,2013-05-11 01:56:00
10:56 PM,72.0,68.0,87,30.06,8.0,South,6.9,-,N/A,,Clear,190,2013-05-11 02:56:00
11:56 PM,72.0,69.1,91,30.06,8.0,South,8.1,-,N/A,,Clear,190,2013-05-11 03:56:00